Lid_Strength_Index
13 16 19 18 16 16 16 17 17 16 15 16 16 16 14 12 13 13 13 13 13 13 12 11 11 12 13 13 14 15 15 15 15 16 16 16 16 16 16 15 14 14 14 14
15 19 17 16 16 16 17 17 19 17 15 16 16 17 14 14 13 13 12 13 13 12 12 12 11 11 12 12 13 13 14 14 14 14 14 14 14 14 13 12 12 11 11 11
18 17 16 17 17 18 18 19 20 19 16 16 17 17 17 15 13 12 12 11 11 12 13 12 12 12 11 12 12 12 12 12 12 12 11 12 12 13 13 13 12 12 11 11
18 17 18 18 18 18 20 17 17 18 19 21 17 21 16 17 16 13 12 12 12 12 12 12 12 13 12 11 11 11 11 12 12 11 12 13 13 14 14 13 12 12 11 11
19 19 20 19 19 18 18 17 18 19 19 20 18 20 15 18 17 16 14 12 11 12 12 13 13 12 12 12 11 11 10 10 10 11 12 13 14 14 13 13 13 12 12 11
20 18 19 19 18 18 17 18 18 19 19 20 22 22 19 17 17 16 14 14 11 11 12 12 13 13 12 12 12 12 11 11 10 11 12 12 13 13 13 13 12 12 12 12
20 21 20 19 20 18 18 19 19 21 22 21 21 23 18 15 14 15 15 14 13 11 12 13 14 14 14 13 13 13 12 12 12 12 12 12 12 12 13 13 13 13 12 12
20 20 21 20 21 22 21 21 21 27 23 22 22 23 17 15 14 16 15 15 14 13 11 12 13 14 14 14 13 13 13 13 12 12 12 12 12 12 12 12 12 12 12 12
20 21 21 21 20 20 21 21 22 24 31 27 22 19 16 16 15 15 15 16 16 15 14 13 13 14 14 14 14 13 13 13 13 13 12 12 12 12 12 12 12 12 12 11
20 22 22 22 21 21 22 21 22 22 27 27 21 21 20 17 16 15 14 14 14 15 14 14 13 13 13 13 13 13 13 13 13 13 13 13 12 12 12 12 12 12 12 12
20 20 22 22 22 21 24 22 22 22 22 25 26 21 16 17 16 16 15 14 14 14 13 13 13 13 13 13 13 13 13 13 13 13 13 13 13 13 13 13 12 12 12 12
19 18 22 21 21 21 22 22 20 23 24 23 23 24 15 16 16 16 16 14 13 13 13 13 12 13 14 13 13 13 13 13 13 13 13 13 13 13 14 14 13 13 13 12
18 20 24 21 22 22 22 21 20 22 23 26 26 22 15 15 15 14 14 12 13 12 12 12 12 13 13 13 13 13 13 13 13 13 13 13 13 13 14 13 13 13 13 13
16 20 21 20 18 20 22 22 21 21 25 21 21 19 16 14 14 13 13 12 12 12 12 12 13 13 13 12 12 13 13 12 12 12 13 13 13 13 13 13 13 13 13 13
18 24 21 20 18 19 19 19 19 22 20 22 18 18 15 14 14 13 13 13 13 13 14 14 14 13 13 13 12 11 12 12 12 12 13 13 12 12 12 12 13 13 13 13
19 23 23 23 20 19 20 18 18 17 17 17 17 18 13 12 12 13 13 13 14 13 13 13 13 13 13 12 12 12 12 11 11 12 12 12 12 13 13 13 13 13 13 13
20 20 23 24 22 22 23 19 17 17 17 16 18 16 12 13 13 12 15 13 13 13 14 14 13 12 12 12 11 12 11 11 12 12 11 12 12 13 13 13 13 13 13 13
18 19 18 20 21 25 18 15 16 16 15 14 14 13 12 12 12 13 12 13 13 14 13 12 11 12 12 11 11 11 12 11 12 12 11 11 12 12 13 13 13 13 13 13
14 15 17 19 22 18 16 14 15 18 17 12 12 12 12 12 12 12 10 9 9 12 11 10 9 10 10 11 10 12 13 12 13 12 11 11 12 12 13 13 13 13 13 13
18 15 16 18 19 24 17 13 13 13 19 12 11 12 12 12 16 14 10 9 9 9 9 9 8 10 10 9 9 10 10 11 11 11 10 11 11 11 12 13 13 13 13 13
25 22 19 18 18 19 14 12 12 18 18 13 11 11 11 13 11 10 10 10 9 9 9 9 10 10 10 9 9 9 9 10 9 9 10 11 11 11 11 12 13 13 13 14
19 20 20 20 20 21 13 13 15 12 12 11 11 11 12 11 11 10 10 10 9 9 8 7 7 7 6 6 8 9 9 8 9 10 10 10 10 11 11 12 13 13 14 14
20 16 18 16 17 13 12 13 12 11 12 12 12 11 10 11 11 10 11 10 9 8 8 6 5 5 5 7 7 7 7 8 9 10 9 9 9 9 10 12 12 14 14 15
16 14 17 16 16 14 12 12 12 11 12 11 10 10 10 10 9 8 8 7 7 6 6 5 6 6 6 6 6 8 7 7 10 10 9 10 10 10 11 10 10 11 13 14
16 15 16 17 15 13 13 12 12 12 12 12 11 11 10 9 8 7 6 5 5 5 4 4 4 5 5 5 6 5 6 6 9 10 9 10 10 11 12 12 11 11 11 12
15 16 17 17 13 13 13 12 12 12 12 11 10 10 9 8 7 5 5 4 4 4 3 4 4 4 4 4 5 5 5 5 7 8 9 9 10 12 11 12 14 9 10 10